Location: Bazinghen
(50.8246°N, 1.6616°E)
Time: 10:00:32
(UTC+00:00)

Cosmos 2218 Rocket - Pass Details

Date: 09 April 2020
Orbit: 957 x 1005 km, 82.9° (Epoch: 24 May)

Event Time Altitude Azimuth Distance (km) Brightness Sun altitude
Rises 20:53:48 0° 348° (NNW) 3,666 7.9 -19.4°
Reaches altitude 10° 20:56:19 10° 345° (NNW) 2,721 7.2 -19.7°
Maximum altitude 21:02:27 64° 266° (W) 1,076 4.3 -20.4°
Enters shadow 21:07:08 18° 189° (S) 2,192 5.5 -21.0°
